Back to catalog

STARLINK-37155

AliveCommunicationsSSO
NORAD 68314·PAYLOAD·🇺🇸 United States

Launched Mar 20, 2026 from Vandenberg Space Force Base

Loading…

Next Passes (next 24 hours)

TLE

FreshSource: CelesTrak SupGP

Epoch: Sep 14, 2026, 15:38 UTC

1 68314C 26057W   26257.65187500  .00058918  00000+0  18302-2 0  2579
2 68314  97.2862  23.1415 0001042 100.3095  47.4732 15.33387843    12

Track STARLINK-37155 in real time with AllMySat

Download on the App Store